Change the Weather History Date:

Wednesday, March 27, 2013

  Actual Average Record
Temperature  
Mean Temperature 37 °F -  
Max Temperature 54 °F 48 °F 80 °F (1998)
Min Temperature 20 °F 31 °F 16 °F (2014)
Degree Days  
Heating Degree Days 28    
Moisture  
Dew Point 25 °F    
Average Humidity 61    
Maximum Humidity 98    
Minimum Humidity 29    
Precipitation  
Precipitation 0.00 in - - ()
Sea Level Pressure  
Sea Level Pressure 29.84 in    
Wind  
Wind Speed 5 mph (NW)    
Max Wind Speed 20 mph    
Max Gust Speed 26 mph    
Visibility 10 miles    
Events Rain    
Averages and records for this station are not official NWS values.
T = Trace of Precipitation, MM = Missing Value Source: NWS Daily Summary

Daily Weather History Graph

Daily Weather History Graph

Search for Another Location

Airport or City:

Trip Planner

Search our weather history database for the weather conditions in past years. The results will help you decide how hot, cold, wet, or windy it might be!

Date:

Astronomy

Mar. 27, 2013 Rise Set
Actual Time 6:40 AM EDT 7:10 PM EDT
Civil Twilight 6:12 AM EDT 7:38 PM EDT
Nautical Twilight 5:39 AM EDT 8:11 PM EDT
Astronomical Twilight 5:05 AM EDT 8:46 PM EDT
Moon 7:52 PM EDT 6:29 AM EDT
Length of Visible Light 13h 25m
Length of Day
12h 29m
Full, 100% of the Moon is Illuminated
Mar 27
Full
Apr 3
Last Quarter
Apr 10
New
Apr 18
First Quarter
Apr 25
Full

Hourly Weather History & Observations

Time (EDT) Temp. Windchill Dew Point Humidity Pressure Visibility Wind Dir Wind Speed Gust Speed Precip Events Conditions
12:55 AM 25.7 °F - 23.4 °F 91% 29.82 in 10.0 mi Calm Calm - N/A   Clear
1:55 AM 24.4 °F - 22.1 °F 91% 29.82 in 10.0 mi Calm Calm - N/A   Clear
2:55 AM 23.2 °F - 21.9 °F 95% 29.81 in 10.0 mi Calm Calm - N/A   Clear
3:55 AM 23.5 °F - 21.2 °F 91% 29.81 in 10.0 mi Calm Calm - N/A   Clear
4:55 AM 21.2 °F - 20.1 °F 96% 29.82 in 10.0 mi Calm Calm - N/A   Clear
5:55 AM 20.8 °F - 20.3 °F 98% 29.83 in 10.0 mi Calm Calm - N/A   Clear
6:55 AM 21.0 °F - 20.3 °F 97% 29.84 in 10.0 mi Calm Calm - N/A   Clear
7:55 AM 25.5 °F - 24.3 °F 95% 29.86 in 10.0 mi Calm Calm - N/A   Clear
8:55 AM 34.3 °F - 25.2 °F 69% 29.86 in 10.0 mi Calm Calm - N/A   Clear
9:55 AM 42.8 °F 41.1 °F 22.5 °F 45% 29.84 in 10.0 mi West 3.5 mph - N/A   Clear
10:55 AM 47.1 °F - 23.5 °F 40% 29.83 in 10.0 mi Calm Calm - N/A   Clear
11:55 AM 50.2 °F - 23.5 °F 35% 29.82 in 10.0 mi NNW 11.5 mph 18.4 mph N/A   Scattered Clouds
12:55 PM 50.7 °F - 23.9 °F 35% 29.81 in 10.0 mi NW 15.0 mph 21.9 mph N/A   Scattered Clouds
1:55 PM 52.9 °F - 22.3 °F 30% 29.79 in 10.0 mi NW 16.1 mph 25.3 mph N/A   Mostly Cloudy
2:55 PM 54.5 °F - 23.0 °F 29% 29.79 in 10.0 mi WNW 18.4 mph 26.5 mph N/A   Overcast
3:55 PM 50.7 °F - 23.5 °F 35% 29.80 in 10.0 mi WNW 19.6 mph 24.2 mph N/A   Mostly Cloudy
4:55 PM 52.3 °F - 23.2 °F 32% 29.81 in 10.0 mi WNW 18.4 mph - N/A   Overcast
5:48 PM 48.2 °F - 24.8 °F 40% 29.83 in 10.0 mi WNW 18.4 mph - N/A   Light Drizzle
5:55 PM 47.7 °F - 28.0 °F 47% 29.84 in 10.0 mi NW 13.8 mph - 0.00 in Rain Light Rain
6:02 PM 46.4 °F 41.1 °F 30.2 °F 53% 29.84 in 10.0 mi North 11.5 mph - N/A   Mostly Cloudy
6:55 PM 46.9 °F - 25.5 °F 43% 29.85 in 10.0 mi NW 17.3 mph - 0.00 in   Partly Cloudy
7:55 PM 44.8 °F 39.4 °F 27.9 °F 52% 29.88 in 10.0 mi NNW 10.4 mph - N/A   Overcast
8:55 PM 43.2 °F 36.6 °F 29.1 °F 58% 29.89 in 10.0 mi NW 12.7 mph - N/A   Overcast
9:55 PM 41.5 °F 35.0 °F 28.9 °F 61% 29.90 in 10.0 mi NW 11.5 mph - N/A   Mostly Cloudy
10:55 PM 41.9 °F 36.3 °F 28.8 °F 60% 29.90 in 10.0 mi NW 9.2 mph - N/A   Overcast
11:24 PM 41.0 °F 34.7 °F 28.4 °F 61% 29.90 in 10.0 mi NW 10.4 mph - N/A   Overcast
11:33 PM 41.0 °F 35.2 °F 28.4 °F 61% 29.90 in 10.0 mi NW 9.2 mph - N/A   Overcast
11:55 PM 40.8 °F 35.6 °F 27.7 °F 60% 29.90 in 10.0 mi NW 8.1 mph - 0.00 in   Overcast